Regional Weather Roundup
Issued by NWS Raleigh/Durham, NC

Home | Current Version | Previous Version | Text Only | Print | Product List | Glossary On
Versions: 1 2 3 4 5 6 7 8 9 10 11 12 13 14 15 16 17 18 19 20 21 22 23 24 25 26 27 28 29 30 31 32 33 34 35 36 37 38 39 40 41 42 43 44 45 46 47 48 49 50
000
ASUS42 KRAH 052010
RWRRAH
NORTH CAROLINA WEATHER ROUNDUP
NATIONAL WEATHER SERVICE RALEIGH NC
400 PM EDT SUN JUL 05 2015

NOTE: "FAIR" INDICATES FEW OR NO CLOUDS BELOW 12,000 FEET WITH NO
SIGNIFICANT WEATHER AND/OR OBSTRUCTIONS TO VISIBILITY.

NCZ001-053-055-056-065-067-052100-
WESTERN NORTH CAROLINA

CITY           SKY/WX    TMP DP  RH WIND       PRES   REMARKS
ASHEVILLE      CLOUDY    77  62  59 S12       30.11S
JEFFERSON      PTSUNNY   74  63  68 SE7       30.15F
HICKORY        MOSUNNY   80  69  69 S6        30.06F
RUTHERFORDTON  NOT AVBL
MOUNT AIRY     PTSUNNY   82  72  70 SE10G16   30.10S
$$

NCZ021-022-025-041-071-084-088-052100-
CENTRAL NORTH CAROLINA

CITY           SKY/WX    TMP DP  RH WIND       PRES   REMARKS
CHARLOTTE      TSTM      77  71  82 S9        30.09R
GREENSBORO     PTSUNNY   86  68  54 S9G20     30.06F
WINSTON-SALEM  PTSUNNY   86  66  51 S9        30.08F
RALEIGH-DURHAM PTSUNNY   90  70  51 S9G17     30.06F HX  95
FORT BRAGG     MOSUNNY   89  69  52 S12G17    30.06F
FAYETTEVILLE   MOSUNNY   91  69  48 S13       30.06F HX  96
$$

NCZ011-015-027-028-043-044-047-080-103-052100-
NORTHEASTERN NORTH CAROLINA

CITY           SKY/WX    TMP DP  RH WIND       PRES   REMARKS
ROANOKE RAPIDS PTSUNNY   81  70  69 N6        30.07F
ROCKY MT-WILSO MOSUNNY   91  71  51 VRB7      30.06F HX  97
GREENVILLE     MOSUNNY   90  70  51 SW9       30.09F HX  95
WASHINGTON     MOSUNNY   89  72  57 S8        30.09F HX  95
ELIZABETH CITY NOT AVBL
MANTEO         PTSUNNY   85  74  70 S10       30.11F
CAPE HATTERAS  SUNNY     83  76  79 SW13      30.13F
$$

NCZ078-087-090-091-093-098-101-052100-
SOUTHEASTERN NORTH CAROLINA

CITY           SKY/WX    TMP DP  RH WIND       PRES   REMARKS
LUMBERTON      SUNNY     92  70  48 S13       30.07F HX  97
GOLDSBORO      MOSUNNY   89  71  55 S8        30.06F HX  95
KINSTON        MOSUNNY   91  70  49 S12       30.09F HX  97
KENANSVILLE    MOSUNNY   90  67  46 S6        30.09F
NEW BERN       SUNNY     90  71  53 S10G20    30.11F HX  96
CHERRY POINT   SUNNY     89  69  51 S10G18    30.12F
BEAUFORT       SUNNY     84  76  76 SW17      30.12F
JACKSONVILLE   SUNNY     88  72  58 S13       30.10F
WILMINGTON     SUNNY     89  70  53 SW14G21   30.10F
$$




USA.gov is the U.S. government's official web portal to all federal, state and local government web resources and services.